Back to catalog

STARLINK-6112

AliveCommunicationsVLEO
NORAD 57136·PAYLOAD·🇺🇸 United States

Launched Jun 23, 2023 from Cape Canaveral Space Force Station

Loading…

Next Passes (next 24 hours)

TLE

FreshSource: CelesTrak SupGP

Epoch: Sep 15, 2026, 02:51 UTC

1 57136C 23090AM  26258.11923611 -.00013123  00000+0 -47537-3 0  2581
2 57136  43.0034 273.3270 0001223 294.7348 178.6266 15.27581562    16

Track STARLINK-6112 in real time with AllMySat

Download on the App Store